"Pseudo-MPEC" for P116hFo

Created 2020 Sep 21 17:07:21 UT using Find_Orb

Click here for an explanation of pseudo-MPECs

 
 Astrometry: 
     P116hFo  C2020 09 16tQ!rraam5?\#BL[4!WcGw]`@-Astrometry!redacted;MtO$OGPF51
     P116hFo  C2020 09 16kb79clickX!^!'si(PSON6Hh0/i8*pY@G%\8r!?*W_)POf\;.L=wF51
     P116hFo  C2020 09 167M@O1_hereEDYFI;_upforXL5e0envEPkTW/+n6KCexplanationF51

Station data:
(F51) Pan-STARRS 1, Haleakala  (N20.707235 W156.255910)  US/Hawaii.
   Observers N. Primak, A. Schultz, S. Watters, J. Thiel, T. Goggia. Measurer
   PS1 Science Consortium. 1.8-m Ritchey-Chrétien + CCD.

Orbital elements:  P116hFo
   Perihelion 2021 Jan 2.083753 +/- 46.1 TT =  2:00:36 (JD 2459216.583753)
Epoch 2020 Sep 16.0 TT = JDT 2459108.5   Earth MOID: 0.0270   AutoNEOCP
M 257.96630055 +/- 37               (J2000 ecliptic)
n   0.94402439 +/- 0.493            Peri.  101.80227 +/- 70
a   1.02915448 +/- 0.358            Node   355.64440 +/- 18
e   0.0129675 +/- 0.272             Incl.    9.47211 +/- 17
P   1.04/381.34d           H 27.5   G  0.15   U 12.3  SR
q 1.01580883 +/- 0.289    Q 1.04250013 +/- 22.5
From 3 observations 2020 Sept. 16 (41.9 min); mean residual 0".16
Residuals in arcseconds: 
200916 F51  .04-  .10+    200916 F51  .11+  .30-    200916 F51  .07-  .20+    

Ephemerides (geocentric):
Date (UTC) HH   RA              Dec         delta   r     elong  mag " sig PA
---- -- -- --  -------------   -----------  ------ ------ -----  --- ---- ---
2020 09 21 17  00 14 14.863   +24 56 56.16  .02991 1.0309 154.2 21.1  56d 178
2020 09 21 18  00 13 43.104   +25 07 35.45  .02995 1.0308 154.1 21.1  56d 178
2020 09 21 19  00 13 11.326   +25 18 12.70  .02998 1.0308 154.0 21.1  55d 178
2020 09 21 20  00 12 39.530   +25 28 47.90  .03002 1.0308 153.8 21.1  55d 178
2020 09 21 21  00 12 07.718   +25 39 21.04  .03005 1.0308 153.7 21.1  55d 178
2020 09 21 22  00 11 35.889   +25 49 52.10  .03009 1.0308 153.6 21.1  55d 178
2020 09 21 23  00 11 04.044   +26 00 21.06  .03013 1.0308 153.4 21.1  55d 178
2020 09 22 00  00 10 32.182   +26 10 47.92  .03017 1.0308 153.3 21.1  55d 178
2020 09 22 01  00 10 00.306   +26 21 12.65  .03020 1.0308 153.2 21.1  55d 178
2020 09 22 02  00 09 28.415   +26 31 35.25  .03024 1.0308 153.0 21.1  55d 178
2020 09 22 03  00 08 56.509   +26 41 55.71  .03028 1.0308 152.9 21.1  55d 178
2020 09 22 04  00 08 24.590   +26 52 14.00  .03032 1.0307 152.7 21.1  55d 178
2020 09 22 05  00 07 52.657   +27 02 30.12  .03036 1.0307 152.6 21.1  55d 178
2020 09 22 06  00 07 20.711   +27 12 44.05  .03040 1.0307 152.5 21.2  55d 178
2020 09 22 07  00 06 48.753   +27 22 55.79  .03044 1.0307 152.3 21.2  55d 178
2020 09 22 08  00 06 16.782   +27 33 05.33  .03048 1.0307 152.2 21.2  55d 178
2020 09 22 09  00 05 44.800   +27 43 12.64  .03052 1.0307 152.0 21.2  55d 178
2020 09 22 10  00 05 12.807   +27 53 17.72  .03056 1.0307 151.9 21.2  55d 178
2020 09 22 11  00 04 40.803   +28 03 20.56  .03061 1.0307 151.8 21.2  55d 178
2020 09 22 12  00 04 08.789   +28 13 21.16  .03065 1.0307 151.6 21.2  54d 178
2020 09 22 13  00 03 36.766   +28 23 19.49  .03069 1.0307 151.5 21.2  54d 177
2020 09 22 14  00 03 04.733   +28 33 15.55  .03074 1.0307 151.3 21.2  54d 177
2020 09 22 15  00 02 32.691   +28 43 09.34  .03078 1.0306 151.2 21.2  54d 177
2020 09 22 16  00 02 00.641   +28 53 00.83  .03082 1.0306 151.0 21.2  54d 177
2020 09 22 17  00 01 28.583   +29 02 50.03  .03087 1.0306 150.9 21.2  54d 177
2020 09 22 18  00 00 56.518   +29 12 36.92  .03091 1.0306 150.7 21.2  54d 177
2020 09 22 19  00 00 24.446   +29 22 21.50  .03096 1.0306 150.6 21.2  54d 177
2020 09 22 20  23 59 52.367   +29 32 03.76  .03100 1.0306 150.5 21.3  54d 177
2020 09 22 21  23 59 20.283   +29 41 43.69  .03105 1.0306 150.3 21.3  54d 177
2020 09 22 22  23 58 48.193   +29 51 21.29  .03110 1.0306 150.2 21.3  54d 177
2020 09 22 23  23 58 16.098   +30 00 56.54  .03114 1.0306 150.0 21.3  54d 177
2020 09 23 00  23 57 43.998   +30 10 29.44  .03119 1.0306 149.9 21.3  54d 177
2020 09 23 01  23 57 11.895   +30 19 59.99  .03124 1.0306 149.7 21.3  54d 177
2020 09 23 02  23 56 39.788   +30 29 28.18  .03129 1.0305 149.6 21.3  54d 177
2020 09 23 03  23 56 07.677   +30 38 53.99  .03134 1.0305 149.4 21.3  53d 177
2020 09 23 04  23 55 35.564   +30 48 17.44  .03138 1.0305 149.3 21.3  53d 177
2020 09 23 05  23 55 03.449   +30 57 38.51  .03143 1.0305 149.1 21.3  53d 177
2020 09 23 06  23 54 31.332   +31 06 57.19  .03148 1.0305 149.0 21.3  53d 177
2020 09 23 07  23 53 59.214   +31 16 13.48  .03153 1.0305 148.8 21.3  53d 177
2020 09 23 08  23 53 27.096   +31 25 27.39  .03158 1.0305 148.7 21.3  53d 177
2020 09 23 09  23 52 54.976   +31 34 38.89  .03163 1.0305 148.6 21.3  53d 177
2020 09 23 10  23 52 22.858   +31 43 48.00  .03168 1.0305 148.4 21.4  53d 177
2020 09 23 11  23 51 50.739   +31 52 54.70  .03174 1.0305 148.3 21.4  53d 177
2020 09 23 12  23 51 18.622   +32 01 58.99  .03179 1.0304 148.1 21.4  53d 177
2020 09 23 13  23 50 46.507   +32 11 00.87  .03184 1.0304 148.0 21.4  53d 177
2020 09 23 14  23 50 14.393   +32 20 00.34  .03189 1.0304 147.8 21.4  53d 177
2020 09 23 15  23 49 42.282   +32 28 57.39  .03195 1.0304 147.7 21.4  53d 177
2020 09 23 16  23 49 10.174   +32 37 52.03  .03200 1.0304 147.5 21.4  52d 177